Terminal Aerodrome Forecast
Issued by NWS

Home | Current Version | Previous Version | Text Only | Print | Product List | Glossary On
Versions: 1 2 3 4 5 6 7 8 9 10 11 12 13 14 15
000
FTUS44 KLUB 222300
TAFCDS
TAF
KCDS 222321Z 2300/2324 18015G22KT P6SM SKC
     FM230200 18011KT P6SM FEW250
     FM231400 20016KT P6SM BKN250=

USA.gov is the U.S. government's official web portal to all federal, state and local government web resources and services.